Regional Weather Roundup
Issued by NWS

Home | Current Version | Previous Version | Text Only | Print | Product List | Glossary On
Versions: 1 2 3 4 5 6 7 8 9 10 11 12 13 14 15 16 17 18 19 20 21 22 23 24 25 26 27 28 29 30 31 32 33 34 35 36 37 38 39 40 41 42 43 44 45 46 47 48 49 50
256
ASUS43 KFSD 242210
RWRSD

WEATHER ROUNDUP FOR SOUTH DAKOTA
NATIONAL WEATHER SERVICE SIOUX FALLS SD
500 PM CDT SAT JUN 24 2017

NOTE: "FAIR" INDICATES FEW OR NO CLOUDS BELOW 12,000 FEET WITH NO
SIGNIFICANT WEATHER AND/OR OBSTRUCTIONS TO VISIBILITY.


SDZ001>005-009-010-012>017-242300-
NORTHWEST AND NORTH CENTRAL SOUTH DAKOTA

CITY           SKY/WX    TMP DP  RH WIND       PRES   REMARKS
BUFFALO          N/A     72  30  21 NW13G23   30.21R
FAITH            N/A     71  28  20 NW17G30   30.23S
MOBRIDGE       MOSUNNY   69  37  30 N21G26    30.18S
$$

SDZ012>016-024>037-041>051-057-063-072>074-242300-
SOUTHWEST AND SOUTH CENTRAL SOUTH DAKOTA

CITY           SKY/WX    TMP DP  RH WIND       PRES   REMARKS
RAPID CTY ARPT MOSUNNY   75  29  18 N17G31    30.25F
PIERRE         SUNNY     73  32  22 NW23G33   30.17F
CUSTER         CLOUDY    63  25  23 N9        30.33F
ELLSWORTH AFB  MOSUNNY   73  30  20 NW13G20   30.24F
PHILIP         SUNNY     76  33  21 NW16G36   30.20S
PINE RIDGE     PTSUNNY   71  37  28 CALM      30.26F
SPEARFISH      FAIR      70  32  24 NW17G25   30.30S
WINNER         FAIR      77  34  21 NW29G35   30.19S
$$

SDZ004>011-016>023-039-040-242300-
NORTHEAST SOUTH DAKOTA

CITY           SKY/WX    TMP DP  RH WIND       PRES   REMARKS
ABERDEEN       MOSUNNY   67  43  41 N22G29    30.16R
WATERTOWN      MOSUNNY   62  40  44 NW18G29   30.13S
BROOKINGS      MOSUNNY   65  41  41 NW20      30.13S
SISSETON         N/A     64  41  42 NW22G30   30.10S
$$

SDZ017-020-022-023-036>040-048>070-242300-
SOUTHEAST SOUTH DAKOTA

CITY           SKY/WX    TMP DP  RH WIND       PRES   REMARKS
SIOUX FALLS    MOSUNNY   70  44  39 NW21G29   30.12S
HURON          MOSUNNY   70  41  34 NW23G29   30.15R
CHAMBERLAIN    SUNNY     75  35  24 NW22G32   30.18R
MITCHELL       SUNNY     74  32  21 NW26G35   30.14S
YANKTON        SUNNY     75  38  26 NW23G31   30.13F
$$

ABBREVIATIONS USED IN REMARKS
   TC - TEMPERATURE IN CELSIUS
  WCI - WIND CHILL INDEX
   HX - HEAT INDEX
  VSB - VISIBILITY





USA.gov is the U.S. government's official web portal to all federal, state and local government web resources and services.